• In Romania
  • List of Countries
  • For 7 days
  • Water Temperature
  • Satellite Maps
  • Weather Map
  • Weather Widgets
  • user-avatar
    Login

    Hourly Weather Bucharest

    Today, 25 June, Sunday

    Time Temperature Precipitation Wind Pressure Humidity
    00:00 +24°C° 0 mm 2 mps 754 mmHg 57%
    01:00 +23°C° 0 mm 2 mps 754 mmHg 60%
    02:00 +21°C° 0 mm 2 mps 754 mmHg 63%
    03:00 +21°C° 0 mm 2 mps 754 mmHg 65%
    04:00 +21°C° 0 mm 2 mps 754 mmHg 67%
    05:00 +20°C° 0 mm 2 mps 754 mmHg 69%
    06:00 +23°C° 0 mm 2 mps 754 mmHg 65%
    07:00 +25°C° 0 mm 2 mps 754 mmHg 61%
    08:00 +27°C° 0 mm 2 mps 755 mmHg 57%
    09:00 +29°C° 0 mm 2 mps 754 mmHg 52%
    10:00 +30°C° 0 mm 2 mps 754 mmHg 48%
    11:00 +32°C° 0 mm 2 mps 754 mmHg 43%
    12:00 +34°C° 0 mm 2 mps 754 mmHg 40%
    13:00 +34°C° 0 mm 2 mps 754 mmHg 38%
    14:00 +35°C° 0 mm 2 mps 753 mmHg 35%
    15:00 +35°C° 0 mm 2 mps 753 mmHg 34%
    16:00 +35°C° 0 mm 2 mps 753 mmHg 33%
    17:00 +34°C° 0 mm 1 mps 752 mmHg 32%
    18:00 +32°C° 0 mm 1 mps 752 mmHg 39%
    19:00 +29°C° 0 mm 1 mps 752 mmHg 46%
    20:00 +26°C° 0 mm 1 mps 752 mmHg 53%
    21:00 +26°C° 0 mm 2 mps 752 mmHg 54%
    22:00 +25°C° 0 mm 3 mps 753 mmHg 56%
    23:00 +25°C° 0 mm 3 mps 753 mmHg 57%

    Tomorrow, 26 June, Monday

    Time Temperature Precipitation Wind Pressure Humidity
    00:00 +24°C° 0 mm 3 mps 753 mmHg 60%
    01:00 +22°C° 0 mm 3 mps 753 mmHg 63%
    02:00 +22°C° 0 mm 3 mps 752 mmHg 66%
    03:00 +21°C° 0 mm 2 mps 752 mmHg 67%
    04:00 +21°C° 0 mm 2 mps 752 mmHg 69%
    05:00 +21°C° 0 mm 2 mps 752 mmHg 70%
    06:00 +24°C° 0 mm 2 mps 752 mmHg 64%
    07:00 +26°C° 0 mm 2 mps 752 mmHg 59%
    08:00 +28°C° 0 mm 3 mps 752 mmHg 53%
    09:00 +29°C° 0 mm 2 mps 752 mmHg 49%
    10:00 +31°C° 0 mm 2 mps 752 mmHg 44%
    11:00 +34°C° 0 mm 2 mps 752 mmHg 40%
    12:00 +35°C° 0 mm 2 mps 751 mmHg 37%
    13:00 +36°C° 0 mm 2 mps 751 mmHg 35%
    14:00 +36°C° 0 mm 2 mps 751 mmHg 33%
    15:00 +37°C° 0 mm 2 mps 750 mmHg 32%
    16:00 +37°C° 0 mm 2 mps 750 mmHg 32%
    17:00 +36°C° 0 mm 1 mps 750 mmHg 31%
    18:00 +34°C° 0 mm 2 mps 750 mmHg 38%
    19:00 +30°C° 0 mm 2 mps 750 mmHg 45%
    20:00 +28°C° 0 mm 2 mps 750 mmHg 52%
    21:00 +27°C° 0 mm 2 mps 750 mmHg 55%
    22:00 +26°C° 0 mm 3 mps 751 mmHg 58%
    23:00 +25°C° 0 mm 3 mps 751 mmHg 61%

    Day after tomorrow, 27 June, Tuesday

    Time Temperature Precipitation Wind Pressure Humidity
    00:00 +24°C° 0 mm 3 mps 751 mmHg 63%
    01:00 +24°C° 0 mm 2 mps 751 mmHg 65%
    02:00 +23°C° 0 mm 2 mps 751 mmHg 67%
    03:00 +23°C° 0 mm 2 mps 751 mmHg 69%
    04:00 +21°C° 0 mm 2 mps 751 mmHg 71%
    05:00 +21°C° 0 mm 2 mps 751 mmHg 72%
    06:00 +24°C° 0 mm 2 mps 752 mmHg 67%
    07:00 +26°C° 0 mm 3 mps 752 mmHg 62%
    08:00 +28°C° 0 mm 3 mps 752 mmHg 56%
    09:00 +29°C° 0 mm 4 mps 752 mmHg 54%
    10:00 +32°C° 0 mm 4 mps 752 mmHg 51%
    11:00 +33°C° 0 mm 4 mps 752 mmHg 48%
    12:00 +34°C° 0.2 mm 4 mps 752 mmHg 46%
    13:00 +35°C° 0.2 mm 3 mps 752 mmHg 44%
    14:00 +36°C° 0.2 mm 3 mps 751 mmHg 41%
    15:00 +36°C° 0 mm 2 mps 751 mmHg 41%
    16:00 +36°C° 0 mm 2 mps 751 mmHg 40%
    17:00 +36°C° 0 mm 2 mps 751 mmHg 39%
    18:00 +34°C° 0 mm 2 mps 751 mmHg 46%
    19:00 +31°C° 0 mm 2 mps 751 mmHg 52%
    20:00 +29°C° 0 mm 3 mps 751 mmHg 58%
    21:00 +28°C° 0.1 mm 3 mps 751 mmHg 59%
    22:00 +27°C° 0.1 mm 3 mps 752 mmHg 61%
    23:00 +26°C° 0.1 mm 3 mps 752 mmHg 63%

    28 June, Wednesday

    Time Temperature Precipitation Wind Pressure Humidity
    00:00 +25°C° 0.3 mm 3 mps 752 mmHg 66%
    01:00 +24°C° 0.3 mm 2 mps 752 mmHg 69%
    02:00 +23°C° 0.3 mm 2 mps 752 mmHg 72%
    03:00 +23°C° 0 mm 2 mps 752 mmHg 72%
    04:00 +23°C° 0 mm 2 mps 751 mmHg 72%
    05:00 +21°C° 0 mm 2 mps 751 mmHg 72%
    06:00 +24°C° 0 mm 2 mps 751 mmHg 66%
    07:00 +26°C° 0 mm 2 mps 752 mmHg 61%
    08:00 +27°C° 0 mm 3 mps 752 mmHg 55%
    09:00 +29°C° 0 mm 3 mps 752 mmHg 49%
    10:00 +31°C° 0 mm 3 mps 752 mmHg 43%
    11:00 +34°C° 0 mm 3 mps 751 mmHg 36%
    12:00 +35°C° 0 mm 3 mps 751 mmHg 34%
    13:00 +36°C° 0 mm 2 mps 751 mmHg 32%
    14:00 +37°C° 0 mm 2 mps 750 mmHg 30%
    15:00 +37°C° 0 mm 2 mps 750 mmHg 30%
    16:00 +37°C° 0 mm 2 mps 750 mmHg 30%
    17:00 +37°C° 0 mm 2 mps 750 mmHg 30%
    18:00 +34°C° 0 mm 2 mps 750 mmHg 36%
    19:00 +31°C° 0 mm 3 mps 750 mmHg 42%
    20:00 +29°C° 0 mm 3 mps 751 mmHg 49%
    21:00 +28°C° 0 mm 3 mps 751 mmHg 52%
    22:00 +27°C° 0 mm 3 mps 751 mmHg 56%
    23:00 +26°C° 0 mm 3 mps 752 mmHg 60%

    29 June, Thursday

    Time Temperature Precipitation Wind Pressure Humidity
    00:00 +25°C° 0 mm 3 mps 751 mmHg 61%
    01:00 +24°C° 0 mm 3 mps 751 mmHg 63%
    02:00 +24°C° 0 mm 2 mps 751 mmHg 65%
    03:00 +23°C° 0 mm 2 mps 751 mmHg 66%
    04:00 +23°C° 0 mm 2 mps 751 mmHg 67%
    05:00 +23°C° 0 mm 2 mps 751 mmHg 68%
    06:00 +25°C° 0 mm 2 mps 752 mmHg 63%
    07:00 +27°C° 0 mm 2 mps 752 mmHg 58%
    08:00 +29°C° 0 mm 2 mps 752 mmHg 53%
    09:00 +31°C° 0 mm 2 mps 752 mmHg 48%
    10:00 +34°C° 0 mm 2 mps 752 mmHg 43%
    11:00 +36°C° 0 mm 2 mps 752 mmHg 38%
    12:00 +37°C° 0 mm 2 mps 752 mmHg 35%
    13:00 +38°C° 0 mm 2 mps 752 mmHg 32%
    14:00 +39°C° 0 mm 2 mps 751 mmHg 29%
    15:00 +40°C° 0 mm 2 mps 751 mmHg 29%
    16:00 +40°C° 0 mm 2 mps 751 mmHg 28%
    17:00 +40°C° 0 mm 2 mps 751 mmHg 27%
    18:00 +37°C° 0 mm 2 mps 751 mmHg 34%
    19:00 +35°C° 0 mm 2 mps 751 mmHg 40%
    20:00 +31°C° 0 mm 3 mps 751 mmHg 47%
    21:00 +30°C° 0 mm 3 mps 751 mmHg 50%
    22:00 +29°C° 0 mm 4 mps 751 mmHg 52%
    23:00 +29°C° 0 mm 4 mps 752 mmHg 55%

    30 June, Friday

    Time Temperature Precipitation Wind Pressure Humidity
    00:00 +28°C° 0 mm 3 mps 752 mmHg 57%
    01:00 +27°C° 0 mm 3 mps 752 mmHg 59%
    02:00 +26°C° 0 mm 3 mps 752 mmHg 60%
    03:00 +26°C° 0 mm 2 mps 752 mmHg 63%
    04:00 +25°C° 0 mm 2 mps 752 mmHg 65%
    05:00 +24°C° 0 mm 2 mps 752 mmHg 67%
    06:00 +27°C° 0 mm 2 mps 752 mmHg 61%
    07:00 +29°C° 0 mm 1 mps 753 mmHg 54%
    08:00 +31°C° 0 mm 1 mps 753 mmHg 48%
    09:00 +33°C° 0 mm 1 mps 753 mmHg 42%
    10:00 +36°C° 0 mm 1 mps 753 mmHg 37%
    11:00 +39°C° 0 mm 1 mps 753 mmHg 31%
    12:00 +40°C° 0 mm 1 mps 753 mmHg 28%
    13:00 +41°C° 0 mm 2 mps 752 mmHg 25%
    14:00 +42°C° 0 mm 2 mps 752 mmHg 22%
    15:00 +42°C° 0 mm 2 mps 752 mmHg 22%
    16:00 +42°C° 0 mm 2 mps 752 mmHg 22%
    17:00 +42°C° 0 mm 2 mps 752 mmHg 21%
    18:00 +39°C° 0 mm 2 mps 752 mmHg 27%
    19:00 +36°C° 0 mm 2 mps 752 mmHg 33%
    20:00 +32°C° 0 mm 2 mps 752 mmHg 39%
    21:00 +31°C° 0 mm 2 mps 752 mmHg 42%
    22:00 +31°C° 0 mm 3 mps 752 mmHg 44%
    23:00 +30°C° 0 mm 4 mps 752 mmHg 47%
    Show more